User: anonymous   Login
Location: Caltech
(34.1382°N, 118.1253°W)
Time: 20:22:31
(UTC-07:00)
Language:

Cosmos 2360 Rocket - Orbit

View from above orbital plane
View from above orbital plane
View from above satellite
View from above satellite

Ground track
Ground track

The orbit data is extracted from the following two-line orbital elements,

1 25407U 98045B   15144.48060544 -.00000244  00000-0 -99979-4 0  9999
2 25407 071.0109 187.3612 0010216 275.6358 084.3600 14.15716011869362
Epoch (UTC): 24 May 2015 11:32:04
Eccentricity: 0.0010216
inclination: 71.0109°
perigee height: 832 km
apogee height: 847 km
right ascension of ascending node: 187.3612°
argument of perigee: 275.6358°
revolutions per day: 14.15716011
mean anomaly at epoch: 84.3600°
orbit number at epoch: 86936

The dashed part of the orbit path shows where the satellite is in the earth's shadow,  

DLR